SCP
0 0 0 0 0 0 0 0 0 0 0 0 0 0 0 0 0 0 0 0 0 0 0 0 0 0 0 0 0 0 0 0 0 0 0 0 0 0 0 0 0 0 0
0 0 0 0 0 0 0 0 0 0 0 0 0 0 0 0 0 0 0 0 0 0 0 0 0 0 0 0 0 0 0 0 0 0 0 0 0 0 0 0 0 0 0
0 0 0 0 0 0 0 0 0 0 0 0 0 0 0 0 0 0 0 0 0 0 0 0 0 0 0 0 0 0 0 0 0 0 0 0 0 0 0 0 0 0 0
0 0 0 0 0 0 0 0 0 0 0 0 0 0 0 0 0 0 0 0 0 0 0 0 0 0 0 0 0 0 0 0 0 0 0 0 0 0 0 0 0 0 0
0 0 0 0 0 0 0 0 0 0 0 0 0 0 0 0 0 0 0 0 0 0 0 0 0 0 0 0 0 0 0 0 0 0 0 0 0 0 0 0 0 0 0
-0 -0 0 0 0 0 0 0 0 0 0 0 0 0 0 0 0 0 0 0 0 0 0 0 0 0 0 0 0 0 0 0 0 0 0 0 0 0 0 0 0 0 0
-0 -0 -0 -0 0 0 0 0 0 0 0 0 0 0 0 0 0 0 0 0 0 0 0 0 0 0 0 0 0 0 0 0 0 0 0 0 0 0 0 0 0 0 0
-0 -0 -0 0 0 0 0 0 0 0 0 0 0 0 0 0 0 0 0 0 0 0 0 0 0 0 0 0 0 0 0 0 0 0 0 0 0 0 0 0 0 0 0
0 -0 0 0 0 0 0 0 0 0 0 0 0 0 0 0 0 0 0 0 0 0 0 0 0 0 0 0 0 0 0 0 0 0 0 0 0 0 0 0 0 0 0
0 0 0 0 0 0 0 0 0 0 0 0 0 0 0 0 0 0 0 0 0 0 0 0 0 0 0 0 0 0 0 0 0 0 0 0 0 0 0 0 0 0 0
0 0 0 0 0 0 0 0 0 0 0 0 0 0 0 0 0 0 0 0 0 0 0 0 0 0 0 0 0 0 0 0 0 0 0 0 0 0 0 0 0 0 0
0 0 0 0 0 0 0 0 0 0 0 0 0 0 0 0 0 0 0 0 0 0 0 0 0 0 0 0 0 0 0 0 0 0 0 0 0 0 0 0 0 0 0
0 0 0 0 0 0 0 0 0 0 0 0 0 0 0 0 0 0 0 0 0 0 0 0 0 0 0 0 0 0 0 0 0 0 0 0 0 0 0 0 0 0 0
0 0 0 0 0 0 0 0 0 0 0 0 0 0 0 0 0 0 0 0 0 0 0 0 0 0 0 0 0 0 0 0 0 0 0 0 0 0 0 0 0 0 0
0 0 0 0 0 0 0 0 0 0 0 0 0 0 0 0 0 0 0 0 0 0 0 0 0 0 0 0 0 0 0 0 0 0 0 0 0 0 0 0 0 0 0
0 0 0 0 0 0 0 0 0 0 0 0 0 0 0 0 0 0 0 0 0 0 0 0 0 0 0 0 0 0 0 0 0 0 0 0 0 0 0 0 0 0 0
0 0 0 0 0 0 0 0 0 0 0 0 0 0 0 0 0 0 0 0 0 0 0 0 0 0 0 0 0 0 0 0 0 0 0 0 0 0 0 0 0 0 0
0 0 0 0 0 0 0 0 0 0 0 0 0 0 0 0 0 0 0 0 0 0 0 0 0 0 0 0 0 0 0 0 0 0 0 0 0 0 0 0 0 0 0
0 0 0 0 0 0 0 0 0 0 0 0 0 0 0 0 0 0 0 0 0 0 0 0 0 0 0 0 0 0 0 0 0 0 0 0 0 0 0 0 0 0 0
0 0 0 0 0 0 0 0 0 0 0 0 0 0 0 0 0 0 0 0 0 0 0 0 0 0 0 0 0 0 0 0 0 0 0 0 0 0 0 0 0 0 0
0 0 0 0 0 0 0 0 0 0 0 0 0 0 0 0 0 0 0 0 0 0 0 0 0 0 0 0 0 0 0 0 0 0 0 0 0 0 0 0 0 0 0
0 0 0 0 0 0 0 0 0 0 0 0 0 0 0 0 0 0 0 0 0 0 0 0 0 0 0 0 0 0 0 0 0 0 0 0 0 0 0 0 0 0 0
0 0 0 0 0 0 0 0 0 0 0 0 0 0 0 0 0 0 0 0 0 0 0 0 0 0 0 0 0 0 0 0 0 0 0 0 0 0 0 0 0 0 0
0 0 0 0 0 0 0 0 0 0 0 0 0 0 0 0 0 0 0 0 0 0 0 0 0 0 0 0 0 0 0 0 0 0 0 0 0 0 0 0 0 0 0
0 0 0 0 0 0 0 0 0 0 0 0 0 0 0 0 0 0 0 0 0 0 0 0 0 0 0 0 0 0 0 0 0 0 0 0 0 0 0 0 0 0 0
0 0 0 0 0 0 0 0 0 0 0 0 0 0 0 0 0 0 0 0 0 0 0 0 0 0 0 0 0 0 0 0 0 0 0 0 0 0 0 0 0 0 0
Wind_Speed
3 3 3 2 2 2 2 2 2 4 4 5 5 5 6 6 6 5 5 10 10 10 9 8 8 8 7 6 6 5 5 5 5 5 5 5 5 6 6 6 5 5 5
2 2 3 2 2 2 2 2 3 3 3 3 4 5 5 5 5 5 4 6 9 10 10 10 9 9 8 7 6 6 6 5 5 6 6 6 6 6 6 6 6 6 6
2 2 2 2 2 2 2 2 4 3 3 3 4 4 4 4 4 5 5 4 5 8 9 10 10 9 9 8 8 8 7 7 7 7 6 6 6 6 6 6 6 7 6
3 2 2 2 2 2 2 3 2 3 3 3 3 3 3 3 4 5 4 4 4 4 8 10 10 11 10 10 9 8 8 7 7 7 7 7 7 7 7 7 7 7 7
2 3 2 2 3 2 2 2 3 2 3 3 3 3 3 3 4 4 5 6 5 5 5 7 9 11 12 11 11 10 9 8 8 7 7 7 7 8 8 8 8 7 7
2 3 2 2 2 2 2 2 3 3 2 2 3 3 3 3 3 4 4 5 5 6 6 6 4 7 10 11 11 10 9 8 8 7 7 7 7 7 8 7 8 8 8
2 2 1 2 1 2 2 2 3 4 2 2 2 2 3 4 3 3 3 3 4 5 5 5 5 4 4 8 11 10 9 9 8 8 7 7 7 6 6 7 7 7 7
2 2 2 2 2 2 2 2 2 1 2 0 1 1 2 3 2 3 3 3 3 3 4 5 5 5 5 4 7 10 10 9 8 8 7 7 6 6 6 6 7 7 7
2 2 2 2 2 2 2 2 2 2 1 1 2 2 1 1 2 2 3 3 3 3 3 4 5 5 6 5 5 8 10 9 9 8 8 8 7 7 7 7 7 6 6
2 2 2 2 2 2 2 2 2 1 1 1 1 1 3 2 1 1 2 2 3 3 3 3 4 5 5 5 6 9 9 9 9 9 9 9 8 7 7 7 6 6 6
3 3 2 1 2 2 2 2 1 0 0 1 0 1 1 0 1 1 1 1 2 2 3 3 3 4 5 5 4 8 8 8 8 9 9 9 9 8 8 7 6 6 6
2 3 2 2 2 2 2 2 1 1 1 1 1 0 1 1 1 1 1 1 1 2 2 2 3 3 3 3 6 7 7 8 8 8 8 9 9 9 9 8 7 7 7
2 3 2 2 2 2 2 2 1 1 1 1 1 1 1 1 2 2 1 1 1 1 1 2 2 2 2 2 3 4 6 7 7 7 7 8 8 8 9 9 9 8 8
2 3 2 2 2 2 2 2 1 1 1 1 2 2 1 1 2 1 2 2 1 1 1 2 2 2 2 2 3 3 4 6 6 7 7 7 7 8 8 8 9 9 9
2 3 3 3 3 2 2 2 2 2 1 2 2 2 1 2 1 2 1 2 2 2 1 2 1 2 2 3 2 2 4 6 6 6 6 7 7 7 7 7 8 8 8
3 3 4 3 3 3 3 2 2 2 2 2 1 2 2 2 2 2 2 2 2 2 2 2 2 3 3 3 4 3 4 3 5 5 7 7 7 7 7 7 8 8 9
4 4 4 3 3 3 3 3 3 3 2 3 2 2 2 2 1 1 1 2 2 2 1 1 2 2 3 3 3 3 2 2 4 6 6 7 8 7 7 7 7 8 8
4 4 4 4 3 3 3 3 3 3 3 2 2 2 2 2 2 2 2 2 2 2 1 2 1 2 3 4 3 3 3 3 3 5 5 6 6 6 6 6 6 6 7
5 5 4 4 4 4 3 3 3 3 3 2 2 2 2 2 2 2 1 2 2 2 1 1 1 2 2 2 3 3 3 3 3 3 2 3 5 5 5 5 5 5 6
5 5 5 4 4 4 4 4 4 3 3 3 2 2 2 2 2 2 2 2 2 1 1 1 1 1 1 2 2 3 2 2 3 3 3 3 2 2 3 3 4 5 5
5 5 5 4 4 3 2 3 4 3 3 3 3 3 4 5 7 5 3 3 2 1 1 1 1 1 2 2 3 3 3 3 2 3 3 3 2 2 1 2 3 5 5
5 5 5 4 4 3 4 2 1 3 3 3 2 3 4 4 5 4 5 6 6 3 2 1 1 2 3 3 2 3 3 4 3 3 4 3 3 3 2 2 5 4 5
5 5 5 4 4 5 6 4 1 2 2 2 1 2 2 2 1 3 5 5 4 3 4 4 3 3 4 3 3 4 3 4 4 3 4 4 3 3 2 2 3 4 5
5 5 5 5 4 5 6 5 3 3 3 3 2 1 2 2 2 1 1 2 3 3 3 2 3 3 4 4 3 4 4 4 3 1 3 4 3 4 4 1 2 2 4
5 5 5 5 5 5 6 5 4 3 3 3 2 2 1 2 4 2 0 1 1 2 4 3 5 4 5 5 5 3 3 3 4 2 2 4 4 5 4 3 1 2 3
5 5 4 4 4 4 6 5 5 3 3 3 3 3 3 2 3 2 1 0 1 1 1 1 1 1 1 1 2 3 3 4 4 3 2 4 5 4 4 2 3 3 3
Wind_Direction
104 105 101 90 70 77 99 91 92 86 78 68 61 62 62 60 62 58 70 58 44 37 37 40 41 39 43 45 51 53 57 55 54 54 52 46 43 39 34 32 29 23 20
102 103 98 83 69 67 72 95 89 90 81 77 69 64 57 59 57 62 62 77 61 43 37 37 38 41 43 44 49 55 58 57 54 53 50 43 39 36 32 27 26 22 18
93 90 84 95 89 93 107 92 89 93 99 96 85 71 64 51 54 54 54 49 70 66 50 43 38 41 46 45 49 54 56 58 59 57 51 44 38 34 29 30 28 24 20
90 83 82 90 94 100 105 104 105 104 99 90 81 76 77 68 58 53 51 51 42 50 70 56 44 42 42 43 45 49 53 55 54 54 51 46 40 35 31 32 32 26 24
99 100 81 96 116 110 102 110 102 98 95 85 84 77 72 66 59 51 44 44 44 37 56 77 64 49 42 41 41 43 47 51 51 50 49 46 42 38 35 31 32 31 27
98 110 129 127 108 109 111 114 107 95 98 107 94 83 73 72 62 50 41 43 35 41 43 46 63 71 57 46 38 38 42 47 46 46 48 45 42 41 37 30 29 30 26
100 101 120 107 107 107 120 126 118 123 120 114 117 115 102 80 67 61 48 42 41 39 42 46 41 36 67 66 44 37 38 40 40 40 41 41 39 38 36 33 31 31 28
108 113 118 124 128 116 120 115 133 125 105 80 295 193 149 130 90 61 61 44 32 43 38 37 41 45 34 41 59 43 33 31 36 39 38 36 32 30 29 32 30 31 29
105 105 95 118 122 132 119 130 146 154 124 77 359 334 339 61 99 85 55 49 33 23 31 35 34 40 39 36 41 49 33 26 28 33 34 33 30 29 29 30 28 28 32
112 109 105 116 127 118 132 153 140 136 155 144 98 2 3 20 324 116 105 64 44 32 28 27 30 35 39 40 51 44 34 27 26 27 27 28 29 29 27 24 25 29 32
117 121 113 116 117 121 123 118 126 177 219 297 349 70 58 25 292 335 50 62 72 52 37 34 37 32 35 36 35 43 32 31 27 26 24 24 25 25 24 24 25 27 26
127 124 126 127 122 117 116 113 123 118 26 8 331 9 339 337 345 358 1 68 61 60 47 40 31 34 32 40 46 41 36 33 30 26 24 23 22 22 22 24 26 26 24
139 130 134 135 116 105 106 115 121 103 110 68 4 21 11 7 352 342 337 2 42 86 72 59 38 23 20 31 52 33 53 33 28 28 26 24 21 23 24 24 24 24 23
138 131 137 127 116 113 117 110 113 107 107 96 69 50 26 22 3 347 342 325 308 143 117 70 39 20 11 22 37 295 67 44 28 28 27 28 29 30 30 27 23 21 21
146 145 143 133 123 119 113 119 108 108 88 68 69 70 45 45 2 356 349 328 318 319 58 68 36 29 13 38 18 25 52 54 28 25 27 29 31 33 35 33 30 25 21
152 153 146 140 134 129 125 116 108 91 107 89 56 53 45 39 28 11 354 343 328 324 350 40 34 36 29 37 47 29 56 83 48 36 34 33 32 35 42 40 32 28 25
158 158 149 144 137 136 134 130 125 124 126 120 114 90 78 46 42 36 16 0 357 347 345 39 43 37 37 30 41 20 28 23 70 57 39 35 37 42 45 38 32 28 25
163 163 152 144 135 135 139 135 128 128 122 114 108 91 81 81 48 23 11 12 14 355 340 8 35 33 22 24 17 8 18 23 29 66 45 36 33 33 33 30 29 25 24
163 165 156 149 146 143 140 135 129 126 119 109 93 83 68 74 77 60 26 24 19 24 7 340 31 33 10 19 2 358 12 5 357 63 62 55 35 30 27 24 22 21 19
165 163 154 151 147 148 146 141 134 127 117 103 87 77 62 59 47 48 43 29 19 27 23 12 32 40 19 357 329 341 350 356 350 359 18 20 36 38 34 23 24 16 9
163 157 149 145 137 140 133 140 139 133 126 112 101 89 69 56 38 26 21 19 18 17 27 9 10 21 15 359 346 335 333 330 349 354 339 347 337 332 13 58 33 12 1
159 153 150 143 138 127 103 92 164 143 136 127 118 110 113 116 103 84 57 39 19 8 0 10 357 358 355 354 342 321 326 323 329 356 325 327 328 328 348 12 33 16 359
159 157 154 149 145 126 129 137 167 165 136 118 118 118 101 92 161 126 126 136 87 42 355 341 357 358 349 349 329 319 328 323 325 345 320 311 321 319 329 46 41 3 353
158 162 158 155 142 133 140 148 169 181 138 128 130 125 130 119 65 18 93 83 65 61 26 350 357 6 3 350 331 319 312 302 301 343 320 304 317 315 318 321 103 354 338
160 166 163 160 157 148 150 161 188 156 150 140 124 93 84 101 74 341 300 94 88 89 90 56 19 20 21 5 336 312 318 309 312 322 338 305 313 313 298 283 171 213 279
163 161 157 165 165 154 143 167 206 180 169 153 139 124 78 61 85 327 291 16 12 35 16 145 200 207 263 79 309 310 319 309 311 315 7 313 309 314 298 286 302 290 274